Weather History for Houston, TX

Change the Weather History Date:

Friday, November 30, 2012

  Actual Average Record
Temperature  
Mean Temperature 67 °F 58 °F  
Max Temperature 78 °F 68 °F 82 °F (1950)
Min Temperature 55 °F 48 °F 19 °F (1976)
Degree Days  
Heating Degree Days 0 9  
Month to date heating degree days 128 155  
Since 1 July heating degree days 168 185  
Cooling Degree Days 4    
Growing Degree Days 19 (Base 50)    
Moisture  
Dew Point 63 °F    
Average Humidity 79    
Maximum Humidity 100    
Minimum Humidity 58    
Precipitation  
Precipitation T in 0.15 in 1.41 in (1968)
Month to date precipitation 0.65 4.34  
Year to date precipitation 39.47 46.03  
Snow  
Snow 0.00 in - 0.00 in (2002)
Month to date snowfall 0.0  
Since 1 July snowfall 0.0  
Since 1 September snowfall 0.0  
Snow Depth 0.00 in    
Sea Level Pressure  
Sea Level Pressure 30.15 in    
Wind  
Wind Speed 9 mph (ESE)    
Max Wind Speed 20 mph    
Max Gust Speed 23 mph    
Visibility 10 miles    
Events Rain    
T = Trace of Precipitation, MM = Missing Value Source: NWS Daily Summary

Daily Weather History Graph

Daily Weather History Graph

Search for Another Location

Airport:

Trip Planner

Search our weather history database for the weather conditions in past years. The results will help you decide how hot, cold, wet, or windy it might be!

Date:

Astronomy

Nov. 30, 2012 Rise Set
Actual Time 6:58 AM CST 5:21 PM CST
Civil Twilight 6:32 AM CST 5:47 PM CST
Nautical Twilight 6:02 AM CST 6:16 PM CST
Astronomical Twilight 5:34 AM CST 6:45 PM CST
Moon 7:16 PM CST (11/30) 8:31 AM CST (11/30)
Length of Visible Light 11h 15m
Length of Day
10h 23m
Waning Gibbous, 96% of the Moon is Illuminated
Nov 30
Waning Gibbous
Dec 6
Last Quarter
Dec 13
New
Dec 19
First Quarter
Dec 28
Full

Hourly Weather History & Observations

Time (CST) Temp. Dew Point Humidity Pressure Visibility Wind Dir Wind Speed Gust Speed Precip Events Conditions
12:04 AM 60.8 °F 59.0 °F 94% 30.18 in 7.0 mi ESE 8.1 mph - N/A   Overcast
12:53 AM 62.1 °F 60.1 °F 93% 30.19 in 7.0 mi East 4.6 mph - N/A   Overcast
1:53 AM 63.0 °F 60.1 °F 90% 30.18 in 8.0 mi ESE 5.8 mph - N/A   Overcast
2:07 AM 62.6 °F 60.8 °F 94% 30.16 in 8.0 mi East 5.8 mph - N/A   Overcast
2:53 AM 63.0 °F 61.0 °F 93% 30.18 in 8.0 mi East 4.6 mph - N/A   Overcast
3:53 AM 63.0 °F 61.0 °F 93% 30.17 in 8.0 mi East 4.6 mph - N/A   Overcast
4:53 AM 63.0 °F 60.1 °F 90% 30.16 in 8.0 mi East 4.6 mph - N/A   Scattered Clouds
5:53 AM 63.0 °F 61.0 °F 93% 30.16 in 10.0 mi ESE 4.6 mph - N/A   Mostly Cloudy
6:53 AM 64.0 °F 61.0 °F 90% 30.17 in 10.0 mi East 5.8 mph - N/A   Mostly Cloudy
7:53 AM 64.9 °F 62.1 °F 90% 30.18 in 10.0 mi East 4.6 mph - N/A   Mostly Cloudy
8:53 AM 68.0 °F 62.1 °F 81% 30.19 in 10.0 mi SE 6.9 mph - N/A   Mostly Cloudy
9:53 AM 71.1 °F 63.0 °F 75% 30.21 in 10.0 mi SE 4.6 mph - N/A   Overcast
10:53 AM 73.9 °F 63.0 °F 68% 30.20 in 10.0 mi SE 6.9 mph - N/A   Mostly Cloudy
11:28 AM 75.2 °F 62.6 °F 65% 30.17 in 10.0 mi ESE 10.4 mph - N/A   Mostly Cloudy
11:53 AM 78.1 °F 64.0 °F 62% 30.18 in 10.0 mi SE 9.2 mph - N/A   Mostly Cloudy
12:16 PM 73.4 °F 62.6 °F 69% 30.15 in 10.0 mi East 6.9 mph - N/A   Mostly Cloudy
12:53 PM 72.0 °F 66.9 °F 84% 30.15 in 10.0 mi SE 4.6 mph - 0.10 in Rain Light Rain
1:53 PM 72.0 °F 66.0 °F 81% 30.12 in 10.0 mi East 8.1 mph - 0.00 in   Scattered Clouds
2:53 PM 70.0 °F 66.0 °F 87% 30.11 in 9.0 mi East 9.2 mph - 0.01 in Rain Light Rain
3:53 PM 73.0 °F 66.0 °F 79% 30.12 in 10.0 mi ESE 8.1 mph - 0.02 in   Mostly Cloudy
4:53 PM 71.1 °F 64.9 °F 81% 30.12 in 10.0 mi SE 8.1 mph - N/A   Mostly Cloudy
5:53 PM 69.8 °F 64.4 °F 83% 30.10 in 10.0 mi SE 8.1 mph - N/A   Mostly Cloudy
6:53 PM 69.1 °F 64.0 °F 84% 30.13 in 10.0 mi SSE 5.8 mph - N/A   Mostly Cloudy
7:53 PM 68.0 °F 64.0 °F 87% 30.13 in 10.0 mi SE 6.9 mph - N/A   Scattered Clouds
8:37 PM 69.8 °F 64.4 °F 83% 30.12 in 10.0 mi SE 6.9 mph - N/A   Mostly Cloudy
8:53 PM 68.0 °F 64.4 °F 88% 30.12 in 10.0 mi SE 6.9 mph - N/A   Mostly Cloudy
9:53 PM 68.0 °F 64.0 °F 87% 30.14 in 10.0 mi SE 4.6 mph - N/A   Scattered Clouds
10:14 PM 68.0 °F 64.4 °F 88% 30.13 in 10.0 mi SE 6.9 mph - N/A   Mostly Cloudy
10:25 PM 68.0 °F 64.4 °F 88% 30.13 in 10.0 mi SSE 5.8 mph - N/A   Mostly Cloudy
10:53 PM 68.0 °F 63.0 °F 84% 30.15 in 10.0 mi SE 4.6 mph - N/A   Mostly Cloudy
11:53 PM 68.0 °F 63.0 °F 84% 30.15 in 10.0 mi SSE 3.5 mph - N/A   Mostly Cloudy